Regional Weather Roundup
Issued by NWS San Angelo, TX

Home | Current Version | Previous Version | Graphics & Text | Print | Product List | Glossary Off
Versions: 1 2 3 4 5 6 7 8 9 10 11 12 13 14 15 16 17 18 19 20 21 22 23 24 25 26 27 28 29 30 31 32 33 34 35 36 37 38 39 40 41 42 43 44 45 46 47 48 49 50

000
ASUS44 KSJT 300810
RWRSJT
WEST CENTRAL TEXAS REGIONAL WEATHER ROUNDUP
NATIONAL WEATHER SERVICE SAN ANGELO TX
300 AM CDT SAT AUG 30 2014

NOTE: "FAIR" INDICATES FEW OR NO CLOUDS BELOW 12,000 FEET WITH NO
SIGNIFICANT WEATHER AND/OR OBSTRUCTIONS TO VISIBILITY.

TXZ049-054-064>066-071>073-076>078-098-099-113-114-127-128-139-140-
154-155-168>170-300900
...LOCATIONS ACROSS WEST CENTRAL TEXAS...

CITY           SKY/WX    TMP DP  RH WIND       PRES   REMARKS
SAN ANGELO     CLEAR     71  66  84 W5        29.97S
ABILENE        CLEAR     73  70  90 S5        29.96S
DYESS AFB      CLEAR     73  70  91 S6        29.95F
JUNCTION       PTCLDY    77  69  76 VRB3      29.97S
SWEETWATER     CLEAR     73  69  88 S8        30.02S
BROWNWOOD      CLOUDY    75  70  83 SE5       29.96S
COLEMAN        MOSUNNY   76  68  76 SE7       29.97S
SONORA         CLEAR     75  70  83 S3        30.02R
OZONA          FAIR      72  64  78 CALM      30.02R
BRADY          CLEAR     73  70  88 E5        29.98R
$$

TEXAS PANHANDLE/OKLAHOMA PANHANDLE

CITY           SKY/WX    TMP DP  RH WIND       PRES   REMARKS
AMARILLO       CLEAR     68  62  81 S10       30.07S
BORGER         PTCLDY    71  58  63 SE6       30.04F
CANADIAN       CLEAR     68  62  81 SW3       30.01S
DALHART        MOCLDY    67  53  61 NW8       30.11R
DUMAS          PTSUNNY   63  54  73 NW3       30.07F
GUYMON         NOT AVBL
HEREFORD       SUNNY     67  63  87 S6        30.09S
PAMPA          SUNNY     67  60  78 SW3       30.06S
PERRYTON       CLEAR     63  57  80 SW5       30.03S
$$

SOUTHERN PANHANDLE/SOUTH PLAINS/ROLLING PLAINS

CITY           SKY/WX    TMP DP  RH WIND       PRES   REMARKS
LUBBOCK        CLEAR     71  65  81 S7        30.03F
SNYDER         CLEAR     72  67  82 SW3       30.00S
CHILDRESS      CLEAR     72  69  90 S6        29.97F
SEMINOLE       SUNNY     69  64  84 SE3       30.06S
$$

PERMIAN BASIN

CITY           SKY/WX    TMP DP  RH WIND       PRES   REMARKS
MIDLAND        CLEAR     74  64  71 SE5       30.02R
ODESSA         CLEAR     75  62  64 SE8       30.03S
WINK           PTCLDY    77  64  64 E7        29.99S
$$

FAR WEST/SOUTHWEST MOUNTAINS/TRANS PECOS

CITY           SKY/WX    TMP DP  RH WIND       PRES   REMARKS
ALPINE         SUNNY     69  59  71 CALM      30.16S
DRYDEN           N/A     81  66  60 NE8       29.95S
EL PASO        PTCLDY    80  47  31 S6        30.03R
FORT STOCKTON  MOCLDY    75  63  66 E6        30.02R
GUADALUPE PASS MOCLDY    70  58  65 NE17      30.19R
MARFA          CLEAR     61  46  59 NW9       30.16R
PECOS          SUNNY     75  63  66 E8        29.98S
$$

DALLAS/FORT WORTH METROPLEX

CITY           SKY/WX    TMP DP  RH WIND       PRES   REMARKS
DFW AIRPORT    PTCLDY    78  70  76 S9        29.92S
FTW MEACHAM    CLEAR     78  70  76 S8        29.92S
DAL-EXECUTIVE  CLOUDY    78  71  79 SE8       29.93S
GRAND PRAIRIE  CLEAR     78  69  73 SE6       29.94S
ADDISON        PTCLDY    79  70  75 S10       29.94S
MESQUITE       SUNNY     74  70  87 SE6       29.94S
LANCASTER      SUNNY     73  70  90 SE5       29.95R
$$

NORTH CENTRAL TEXAS

CITY           SKY/WX    TMP DP  RH WIND       PRES   REMARKS
SHRMAN/DENISON CLOUDY    78  71  78 S9        29.95S
GAINESVILLE    CLOUDY    74  72  91 SE3       29.95S
BRIDGEPORT     PTSUNNY   75  69  80 CALM      29.95S
DENTON         CLEAR     76  71  85 S3        29.93R
WAXAHACHIE     SUNNY     74  70  89 SE3       29.95S
GRANBURY       SUNNY     77  71  80 CALM      29.95R
$$

WESTERN NORTH TEXAS

CITY           SKY/WX    TMP DP  RH WIND       PRES   REMARKS
WICHITA FALLS  CLEAR     71  68  90 S5        29.91F
VERNON         SUNNY     72  69  88 W3        29.95R
BRECKENRIDGE   MOSUNNY   75  71  87 SE6       29.94S
COMANCHE         N/A     73  71  93 SE3       29.96S
$$

CENTRAL AND SOUTH CENTRAL TEXAS

CITY           SKY/WX    TMP DP  RH WIND       PRES   REMARKS
AUSTIN/BERGSTM PTCLDY    73  71  93 SE6       29.93S
WACO           PTCLDY    76  71  85 SE10      29.92F
HILLSBORO      SUNNY     74  69  82 SE8       29.93F
TEMPLE         CLEAR     73  68  83 SE6       29.93S
KILLEEN-GRAY   CLEAR     73  72  94 S5        29.95R
FORT HOOD      CLEAR     77  72  84 SE6       29.95R
GEORGETOWN     CLEAR     75  72  88 S5        29.95S
LAGO VISTA     CLOUDY    76  72  86 SE5       29.97R
SAN MARCOS     CLOUDY    75  70  83 S3        29.95S
NEW BRAUNFELS  CLEAR     76  73  91 S9        29.92S
RANDOLPH AFB   PTCLDY    75  71  88 SE5       29.94S
SAN ANTONIO    MOCLDY    79  73  82 SE7       29.94S
STINSON        PTCLDY    79  74  84 SE5       29.92R
PLEASANTON     NOT AVBL
LA GRANGE      MOCLDY    77  75  93 S3        29.91S
GIDDINGS       PTSUNNY   74  71  91 CALM      29.97R
$$

EAST TEXAS

CITY           SKY/WX    TMP DP  RH WIND       PRES   REMARKS
PARIS          CLEAR     72  64  78 SE6       29.96S
CLARKSVILLE    NOT AVBL
TYLER          PTCLDY    74  70  87 S5        29.95S
LONGVIEW       MOCLDY    75  69  81 SE3       29.95R
PALESTINE      MOSUNNY   74  72  94 CALM      29.95S
NACOGDOCHES    MOCLDY    73  70  88 SE5       29.95S
$$

TEXAS HILL COUNTRY AND EDWARDS PLATEAU

CITY           SKY/WX    TMP DP  RH WIND       PRES   REMARKS
LLANO          PTSUNNY   75  70  83 CALM      29.99R
HORSESHOE BAY  PTSUNNY   74  71  88 CALM      29.95F
KERRVILLE      PTCLDY    74  69  86 CALM      29.98S
FREDERICKSBRG  MOCLDY    74  69  83 SE5       29.98S
ROCKSPRINGS    PTSUNNY   77  66  69 SE10      30.01S
HONDO          CLOUDY    80  70  71 SE7       29.96S
UVALDE         SUNNY     79  72  77 SE10      29.93F
DEL RIO        MOCLDY    85  69  58 SE13      29.90R
$$

SOUTHEAST TEXAS

CITY           SKY/WX    TMP DP  RH WIND       PRES   REMARKS
COLLEGE STN    MOCLDY    74  71  91 E3        29.93R
CALDWELL       PTSUNNY   72  72 100 CALM      29.96S
CROCKETT       PTSUNNY   77  75  94 E3        29.96S
BRENHAM        MOCLDY    74  72  93 CALM      29.92S
HUNTSVILLE     MOCLDY    76  71  85 CALM      29.93S
CONROE         CLOUDY    74  72  93 CALM      29.93R
HOUSTON BUSH   MOCLDY    75  73  94 E8        29.90F
HOUSTON HOBBY  MOCLDY    77  74  90 CALM      29.89S
PERLAND        MOCLDY    78  74  87 CALM      29.90S
WHARTON        SUNNY     73  72  97 CALM      29.90F FOG
$$

THE UPPER TEXAS COAST

CITY           SKY/WX    TMP DP  RH WIND       PRES   REMARKS
ORANGE         RAIN      76  76 100 CALM      29.94S
PORT ARTHUR    LGT RAIN  76  73  91 E7        29.92S
GALVESTON      MOCLDY    83  76  79 S16       29.89F
ANGLETON       PTCLDY    73  73 100 N5        29.89S
BAY CITY       SUNNY     75  75 100 CALM      29.89F
$$

TEXAS COASTAL BEND, RIO GRANDE PLAINS DEEP SOUTH TEXAS

CITY           SKY/WX    TMP DP  RH WIND       PRES   REMARKS
VICTORIA       PTCLDY    77  74  90 CALM      29.90F
BEEVILLE       PTSUNNY   77  76  98 SE3       29.90F
ROCKPORT       PTCLDY    82  77  84 CALM      29.88F
PORT ARANSAS   MOSUNNY   82  77  84 SE3       29.86F
PORT LAVACA    SUNNY     76  74  94 NE5       29.90S
CORPUS CHRISTI MOCLDY    78  75  90 CALM      29.88S
KINGSVILLE NAS MOCLDY    77  77 100 N5        29.88S
COTULLA        CLEAR     79  71  76 SE7       29.92R
LAREDO         MOCLDY    81  72  74 E8        29.92S
BROWNSVILLE    TSTM      75  73  93 SE18G31   29.86S
PORT ISABEL    PTCLDY    82  78  88 SE6       29.84F
HEBBRONVILLE   MOSUNNY   78  73  85 E5        29.91S
MCALLEN        CLOUDY    80  78  94 E5        29.86S
WESLACO        NOT AVBL
FALFURRIAS     CLOUDY    70  67  89 CALM      29.88S
EDINBURG       CLOUDY    81  76  86 CALM      29.85F
$$


USA.gov is the U.S. government's official web portal to all federal, state and local government web resources and services.